| time (UTC) | temp F | wind direction | speed knots | gust knots | rain 1hr in | rain 24hr in | rain mn in | humidity % | barometer mb |
| 20260504222820 | 80 | 194 | 2.6 | 7.0 | 0.00 | 0.00 | 0.00 | 66 | 1010.6 |
| 20260504222300 | 81 | 207 | 2.6 | 7.0 | 0.00 | 0.00 | 0.00 | 65 | 1010.6 |
| 20260504221801 | 81 | 138 | 2.6 | 7.0 | 0.00 | 0.00 | 0.00 | 66 | 1010.7 |
| 20260504221256 | 81 | 221 | 2.6 | 7.0 | 0.00 | 0.00 | 0.00 | 65 | 1010.8 |
| 20260504220756 | 81 | 154 | 1.7 | 7.0 | 0.00 | 0.00 | 0.00 | 66 | 1010.8 |
| 20260504220257 | 81 | 181 | 1.7 | 5.2 | 0.00 | 0.00 | 0.00 | 66 | 1010.8 |
| 20260504215735 | 81 | 200 | 2.6 | 5.2 | 0.00 | 0.00 | 0.00 | 65 | 1010.8 |
| 20260504215235 | 81 | 165 | 1.7 | 4.3 | 0.00 | 0.00 | 0.00 | 65 | 1010.9 |
| 20260504215158 | 81 | 163 | 1.7 | 6.1 | 0.00 | 0.00 | 0.00 | 65 | 1010.9 |
| 20260504214146 | 81 | 182 | 2.6 | 6.1 | 0.00 | 0.00 | 0.00 | 65 | 1011.1 |
| 20260504214103 | 82 | 180 | 2.6 | 6.1 | 0.00 | 0.00 | 0.00 | 64 | 1011.1 |
| 20260504213057 | 82 | 178 | 1.7 | 5.2 | 0.00 | 0.00 | 0.00 | 63 | 1011.0 |
| 20260504212531 | 82 | 186 | 1.7 | 3.5 | 0.00 | 0.00 | 0.00 | 63 | 1011.3 |
| 20260504212030 | 83 | 148 | 1.7 | 6.1 | 0.00 | 0.00 | 0.00 | 64 | 1011.2 |
| 20260504212013 | 82 | 237 | 1.7 | 7.8 | 0.00 | 0.00 | 0.00 | 64 | 1011.2 |
| 20260504211008 | 82 | 134 | 1.7 | 7.8 | 0.00 | 0.00 | 0.00 | 64 | 1011.4 |
| 20260504210506 | 82 | 171 | 2.6 | 8.7 | 0.00 | 0.00 | 0.00 | 63 | 1011.4 |
| 20260504210006 | 83 | 163 | 2.6 | 8.7 | 0.00 | 0.00 | 0.00 | 61 | 1011.5 |
| 20260504205503 | 84 | 112 | 2.6 | 5.2 | 0.00 | 0.00 | 0.00 | 61 | 1011.5 |
| 20260504205159 | 85 | 130 | 1.7 | 7.0 | 0.00 | 0.00 | 0.00 | 62 | 1011.6 |
| 20260504204436 | 84 | 148 | 1.7 | 8.7 | 0.00 | 0.00 | 0.00 | 60 | 1011.8 |
| 20260504203932 | 84 | 192 | 2.6 | 8.7 | 0.00 | 0.00 | 0.00 | 62 | 1011.7 |
| 20260504203430 | 84 | 104 | 3.5 | 8.7 | 0.00 | 0.00 | 0.00 | 60 | 1011.7 |
| 20260504202929 | 84 | 195 | 2.6 | 8.7 | 0.00 | 0.00 | 0.00 | 61 | 1011.9 |
| 20260504202426 | 83 | 187 | 2.6 | 7.0 | 0.00 | 0.00 | 0.00 | 63 | 1011.9 |
| 20260504201859 | 82 | 203 | 1.7 | 7.0 | 0.00 | 0.00 | 0.00 | 63 | 1012.2 |
| 20260504201333 | 82 | 169 | 1.7 | 7.0 | 0.00 | 0.00 | 0.00 | 63 | 1012.2 |
| 20260504200808 | 82 | 179 | 2.6 | 8.7 | 0.00 | 0.00 | 0.00 | 62 | 1012.3 |
| 20260504200306 | 82 | 184 | 2.6 | 8.7 | 0.00 | 0.00 | 0.00 | 63 | 1012.5 |
| 20260504195743 | 82 | 160 | 2.6 | 7.8 | 0.00 | 0.00 | 0.00 | 63 | 1012.5 |
| 20260504195240 | 82 | 196 | 2.6 | 7.8 | 0.00 | 0.00 | 0.00 | 61 | 1012.5 |
| 20260504194737 | 83 | 142 | 1.7 | 6.1 | 0.00 | 0.00 | 0.00 | 61 | 1012.8 |
| 20260504194210 | 82 | 181 | 1.7 | 6.1 | 0.00 | 0.00 | 0.00 | 62 | 1012.7 |
| 20260504193648 | 82 | 184 | 2.6 | 7.0 | 0.00 | 0.00 | 0.00 | 61 | 1012.7 |
| 20260504193124 | 83 | 193 | 2.6 | 7.0 | 0.00 | 0.00 | 0.00 | 62 | 1012.8 |
| 20260504192557 | 83 | 153 | 1.7 | 6.1 | 0.00 | 0.00 | 0.00 | 62 | 1012.8 |
| 20260504192056 | 82 | 131 | 2.6 | 7.0 | 0.00 | 0.00 | 0.00 | 62 | 1013.0 |
| 20260504191555 | 83 | 132 | 2.6 | 7.0 | 0.00 | 0.00 | 0.00 | 64 | 1013.2 |
| 20260504191053 | 82 | 188 | 2.6 | 7.8 | 0.00 | 0.00 | 0.00 | 62 | 1013.2 |
| 20260504190528 | 82 | 182 | 1.7 | 8.7 | 0.00 | 0.00 | 0.00 | 62 | 1013.2 |
| 20260504190441 | 82 | 181 | 1.7 | 8.7 | 0.00 | 0.00 | 0.00 | 62 | 1013.3 |
| 20260504185435 | 81 | 210 | 2.6 | 10.4 | 0.00 | 0.00 | 0.00 | 62 | 1013.4 |
| 20260504184932 | 81 | 208 | 2.6 | 10.4 | 0.00 | 0.00 | 0.00 | 63 | 1013.6 |
| 20260504184658 | 82 | 193 | 1.7 | 4.3 | 0.00 | 0.00 | 0.00 | 63 | 1013.5 |
| 20260504183931 | 82 | 147 | 1.7 | 5.2 | 0.00 | 0.00 | 0.00 | 63 | 1013.5 |
| 20260504183404 | 82 | 165 | 1.7 | 5.2 | 0.00 | 0.00 | 0.00 | 63 | 1013.5 |
| 20260504182837 | 81 | 144 | 2.6 | 6.1 | 0.00 | 0.00 | 0.00 | 63 | 1013.6 |
| 20260504182310 | 82 | 200 | 2.6 | 7.8 | 0.00 | 0.00 | 0.00 | 61 | 1013.5 |
| 20260504181744 | 81 | 200 | 2.6 | 11.3 | 0.00 | 0.00 | 0.00 | 61 | 1013.5 |
| 20260504181218 | 81 | 175 | 2.6 | 7.8 | 0.00 | 0.00 | 0.00 | 63 | 1013.7 |
| 20260504180651 | 80 | 116 | 2.6 | 8.7 | 0.00 | 0.00 | 0.00 | 62 | 1013.9 |
| 20260504180124 | 80 | 171 | 2.6 | 8.7 | 0.00 | 0.00 | 0.00 | 61 | 1014.0 |
| 20260504175618 | 81 | 207 | 2.6 | 7.8 | 0.00 | 0.00 | 0.00 | 62 | 1014.1 |
| 20260504175114 | 82 | 157 | 2.6 | 7.8 | 0.00 | 0.00 | 0.00 | 63 | 1014.1 |
| 20260504174610 | 80 | 185 | 2.6 | 7.8 | 0.00 | 0.00 | 0.00 | 62 | 1014.1 |
| 20260504174110 | 81 | 123 | 2.6 | 7.0 | 0.00 | 0.00 | 0.00 | 64 | 1014.1 |
| 20260504173834 | 80 | 132 | 2.6 | 7.0 | 0.00 | 0.00 | 0.00 | 62 | 1014.2 |
| 20260504173104 | 81 | 180 | 2.6 | 9.6 | 0.00 | 0.00 | 0.00 | 64 | 1014.3 |
| 20260504172538 | 81 | 131 | 2.6 | 9.6 | 0.00 | 0.00 | 0.00 | 63 | 1014.3 |
| 20260504172011 | 81 | 173 | 2.6 | 10.4 | 0.00 | 0.00 | 0.00 | 60 | 1014.5 |
| 20260504171510 | 81 | 160 | 2.6 | 10.4 | 0.00 | 0.00 | 0.00 | 62 | 1014.6 |
| 20260504171007 | 80 | 169 | 2.6 | 8.7 | 0.00 | 0.00 | 0.00 | 66 | 1014.7 |
| 20260504170505 | 80 | 190 | 2.6 | 8.7 | 0.00 | 0.00 | 0.00 | 65 | 1014.7 |
| 20260504160435 | 79 | 197 | 2.6 | 8.7 | 0.00 | 0.00 | 0.00 | 66 | 1015.5 |
| 20260504150352 | 75 | 194 | 1.7 | 7.0 | 0.00 | 0.00 | 0.00 | 68 | 1015.7 |
| 20260504140625 | 73 | 157 | 1.7 | 4.3 | 0.00 | 0.00 | 0.00 | 70 | 1015.6 |
| 20260504140120 | 72 | 182 | 1.7 | 6.1 | 0.00 | 0.00 | 0.00 | 71 | 1015.5 |
| 20260504130245 | 63 | 171 | 0.0 | 1.7 | 0.00 | 0.00 | 0.00 | 89 | 1015.6 |
| 20260504110646 | 57 | 0 | 0.0 | 0.0 | 0.00 | 0.00 | 0.00 | 89 | 1015.1 |
| 20260504110119 | 57 | 171 | 0.0 | 0.0 | 0.00 | 0.00 | 0.00 | 89 | 1015.0 |
| 20260504100329 | 58 | 171 | 0.0 | 0.0 | 0.00 | 0.00 | 0.00 | 86 | 1015.3 |
| 20260504090107 | 59 | 0 | 0.0 | 0.0 | 0.00 | 0.00 | 0.00 | 85 | 1015.9 |
| 20260504081418 | 60 | 0 | 0.0 | 0.0 | 0.00 | 0.00 | 0.00 | 82 | 1016.1 |
| 20260504080916 | 60 | 0 | 0.0 | 0.0 | 0.00 | 0.00 | 0.00 | 82 | 1016.0 |
| 20260504080349 | 60 | 171 | 0.0 | 0.0 | 0.00 | 0.00 | 0.00 | 81 | 1016.1 |
| 20260504080105 | 60 | 0 | 0.0 | 0.0 | 0.00 | 0.00 | 0.00 | 81 | 1016.2 |
| 20260504070150 | 61 | 171 | 0.0 | 0.9 | 0.00 | 0.00 | 0.00 | 80 | 1017.3 |
| 20260504050533 | 63 | 170 | 0.0 | 0.9 | 0.00 | 0.00 | 0.00 | 74 | 1018.0 |
| 20260504050007 | 63 | 0 | 0.0 | 0.9 | 0.00 | 0.00 | 0.00 | 73 | 1018.0 |
| 20260504045706 | 64 | 0 | 0.0 | 0.0 | 0.00 | 0.00 | 0.00 | 72 | 1017.9 |
| 20260504044913 | 64 | 0 | 0.0 | 0.0 | 0.00 | 0.00 | 0.00 | 71 | 1018.0 |
| 20260504044411 | 64 | 0 | 0.0 | 0.0 | 0.00 | 0.00 | 0.00 | 71 | 1018.0 |
| 20260504043908 | 65 | 0 | 0.0 | 0.0 | 0.00 | 0.00 | 0.00 | 71 | 1018.1 |
| 20260504043404 | 65 | 0 | 0.0 | 0.0 | 0.00 | 0.00 | 0.00 | 70 | 1018.1 |
| 20260504042838 | 65 | 0 | 0.0 | 1.7 | 0.00 | 0.00 | 0.00 | 69 | 1018.0 |
| 20260504042334 | 65 | 0 | 0.0 | 1.7 | 0.00 | 0.00 | 0.00 | 69 | 1018.1 |
| 20260504041808 | 65 | 0 | 0.0 | 0.9 | 0.00 | 0.00 | 0.00 | 69 | 1018.0 |
| 20260504041243 | 65 | 0 | 0.0 | 2.6 | 0.00 | 0.00 | 0.00 | 68 | 1018.1 |
| 20260504040728 | 66 | 0 | 0.0 | 2.6 | 0.00 | 0.00 | 0.00 | 68 | 1018.2 |
| 20260504040230 | 66 | 0 | 0.0 | 1.7 | 0.00 | 0.00 | 0.00 | 68 | 1018.2 |
| 20260504035704 | 66 | 0 | 0.0 | 2.6 | 0.00 | 0.00 | 0.00 | 67 | 1018.2 |
| 20260504035138 | 66 | 0 | 0.9 | 3.5 | 0.00 | 0.00 | 0.00 | 67 | 1018.1 |
| 20260504034857 | 66 | 0 | 0.9 | 3.5 | 0.00 | 0.00 | 0.00 | 66 | 1018.0 |
| 20260504034131 | 67 | 0 | 0.0 | 0.9 | 0.00 | 0.00 | 0.00 | 66 | 1018.1 |
| 20260504033629 | 67 | 0 | 0.0 | 1.7 | 0.00 | 0.00 | 0.00 | 65 | 1018.2 |
| 20260504033102 | 67 | 0 | 0.9 | 2.6 | 0.00 | 0.00 | 0.00 | 64 | 1018.2 |
| 20260504032559 | 67 | 0 | 0.9 | 2.6 | 0.00 | 0.00 | 0.00 | 64 | 1018.1 |
| 20260504032046 | 68 | 0 | 0.9 | 3.5 | 0.00 | 0.00 | 0.00 | 63 | 1018.1 |
| 20260504031548 | 68 | 0 | 0.9 | 3.5 | 0.00 | 0.00 | 0.00 | 63 | 1017.9 |
| 20260504031046 | 68 | 0 | 1.7 | 3.5 | 0.00 | 0.00 | 0.00 | 62 | 1017.8 |
| 20260504030542 | 68 | 0 | 1.7 | 3.5 | 0.00 | 0.00 | 0.00 | 62 | 1017.9 |
| 20260504030017 | 68 | 0 | 0.9 | 5.2 | 0.00 | 0.00 | 0.00 | 62 | 1017.8 |
| 20260504025450 | 68 | 0 | 0.9 | 5.2 | 0.00 | 0.00 | 0.00 | 62 | 1017.9 |
| 20260504024945 | 69 | 0 | 0.9 | 3.5 | 0.00 | 0.00 | 0.00 | 62 | 1017.8 |
| 20260504024422 | 69 | 0 | 0.9 | 3.5 | 0.00 | 0.00 | 0.00 | 61 | 1017.8 |
| 20260504023853 | 69 | 0 | 0.9 | 3.5 | 0.00 | 0.00 | 0.00 | 61 | 1017.9 |
| 20260504023352 | 69 | 0 | 0.9 | 2.6 | 0.00 | 0.00 | 0.00 | 60 | 1017.8 |
| 20260504022848 | 69 | 0 | 0.9 | 4.3 | 0.00 | 0.00 | 0.00 | 60 | 1017.8 |
| 20260504022345 | 70 | 0 | 1.7 | 4.3 | 0.00 | 0.00 | 0.00 | 59 | 1017.8 |
| 20260504021817 | 70 | 0 | 0.9 | 4.3 | 0.00 | 0.00 | 0.00 | 59 | 1017.7 |
| 20260504021315 | 70 | 0 | 0.9 | 4.3 | 0.00 | 0.00 | 0.00 | 58 | 1017.7 |
| 20260504020747 | 70 | 0 | 1.7 | 7.0 | 0.00 | 0.00 | 0.00 | 57 | 1017.6 |
| 20260504020244 | 71 | 0 | 1.7 | 4.3 | 0.00 | 0.00 | 0.00 | 58 | 1017.5 |
| 20260504015742 | 71 | 0 | 1.7 | 5.2 | 0.00 | 0.00 | 0.00 | 57 | 1017.5 |
| 20260504015239 | 71 | 154 | 1.7 | 5.2 | 0.00 | 0.00 | 0.00 | 57 | 1017.4 |
| 20260504014711 | 71 | 166 | 1.7 | 5.2 | 0.00 | 0.00 | 0.00 | 57 | 1017.4 |
| 20260504014209 | 71 | 0 | 0.9 | 6.1 | 0.00 | 0.00 | 0.00 | 57 | 1017.4 |
| 20260504013908 | 71 | 175 | 1.7 | 6.1 | 0.00 | 0.00 | 0.00 | 57 | 1017.4 |
| 20260504013407 | 71 | 0 | 0.9 | 3.5 | 0.00 | 0.00 | 0.00 | 56 | 1017.3 |
| 20260504012833 | 71 | 140 | 0.0 | 1.7 | 0.00 | 0.00 | 0.00 | 56 | 1017.2 |
| 20260504012045 | 72 | 140 | 0.9 | 3.5 | 0.00 | 0.00 | 0.00 | 56 | 1017.1 |
| 20260504011542 | 72 | 150 | 0.9 | 2.6 | 0.00 | 0.00 | 0.00 | 55 | 1017.0 |
| 20260504011224 | 73 | 150 | 0.9 | 1.7 | 0.00 | 0.00 | 0.00 | 54 | 1017.1 |
| 20260504011104 | 73 | 202 | 0.9 | 3.5 | 0.00 | 0.00 | 0.00 | 55 | 1017.0 |
| 20260504005945 | 73 | 149 | 0.9 | 2.6 | 0.00 | 0.00 | 0.00 | 53 | 1017.1 |
| 20260504005442 | 73 | 146 | 0.9 | 5.2 | 0.00 | 0.00 | 0.00 | 53 | 1017.0 |
| 20260504004917 | 74 | 139 | 1.7 | 5.2 | 0.00 | 0.00 | 0.00 | 51 | 1017.1 |
| 20260504004350 | 74 | 153 | 1.7 | 4.3 | 0.00 | 0.00 | 0.00 | 51 | 1017.1 |
| 20260504003846 | 75 | 144 | 0.9 | 2.6 | 0.00 | 0.00 | 0.00 | 50 | 1017.1 |
| 20260504003319 | 75 | 165 | 0.9 | 4.3 | 0.00 | 0.00 | 0.00 | 48 | 1017.2 |
| 20260504002816 | 76 | 144 | 0.9 | 5.2 | 0.00 | 0.00 | 0.00 | 47 | 1017.2 |
| 20260504002250 | 76 | 205 | 0.9 | 5.2 | 0.00 | 0.00 | 0.00 | 45 | 1017.2 |
| 20260504001746 | 77 | 172 | 0.9 | 1.7 | 0.00 | 0.00 | 0.00 | 45 | 1017.2 |
| 20260504001222 | 78 | 162 | 0.9 | 6.1 | 0.00 | 0.00 | 0.00 | 45 | 1017.0 |
| 20260504000657 | 78 | 163 | 1.7 | 6.1 | 0.00 | 0.00 | 0.00 | 43 | 1017.1 |
| 20260504000154 | 78 | 137 | 1.7 | 7.8 | 0.00 | 0.00 | 0.00 | 43 | 1017.1 |
| 20260503235650 | 79 | 158 | 1.7 | 7.8 | 0.00 | 0.00 | 0.00 | 43 | 1017.3 |
| 20260503235147 | 79 | 131 | 0.9 | 3.5 | 0.00 | 0.00 | 0.00 | 43 | 1017.3 |
| 20260503234644 | 79 | 229 | 0.9 | 4.3 | 0.00 | 0.00 | 0.00 | 44 | 1017.3 |
| 20260503234142 | 79 | 229 | 1.7 | 4.3 | 0.00 | 0.00 | 0.00 | 43 | 1017.3 |
| 20260503233638 | 80 | 129 | 1.7 | 3.5 | 0.00 | 0.00 | 0.00 | 44 | 1017.3 |
| 20260503233112 | 80 | 186 | 1.7 | 3.5 | 0.00 | 0.00 | 0.00 | 44 | 1017.3 |
| 20260503232608 | 80 | 182 | 0.9 | 4.3 | 0.00 | 0.00 | 0.00 | 43 | 1017.3 |
| 20260503232042 | 80 | 205 | 0.9 | 4.3 | 0.00 | 0.00 | 0.00 | 45 | 1017.3 |
| 20260503231537 | 80 | 196 | 0.9 | 4.3 | 0.00 | 0.00 | 0.00 | 44 | 1017.4 |
| 20260503231031 | 80 | 192 | 0.9 | 5.2 | 0.00 | 0.00 | 0.00 | 45 | 1017.4 |
| 20260503230528 | 80 | 189 | 1.7 | 5.2 | 0.00 | 0.00 | 0.00 | 43 | 1017.4 |
| 20260503225959 | 80 | 195 | 1.7 | 4.3 | 0.00 | 0.00 | 0.00 | 44 | 1017.4 |
| 20260503225457 | 80 | 161 | 1.7 | 4.3 | 0.00 | 0.00 | 0.00 | 45 | 1017.4 |
| 20260503224930 | 80 | 140 | 1.7 | 3.5 | 0.00 | 0.00 | 0.00 | 43 | 1017.5 |
| 20260503224428 | 80 | 132 | 0.9 | 4.3 | 0.00 | 0.00 | 0.00 | 43 | 1017.7 |
| 20260503223924 | 80 | 175 | 1.7 | 4.3 | 0.00 | 0.00 | 0.00 | 45 | 1017.6 |
| 20260503223358 | 80 | 169 | 2.6 | 4.3 | 0.00 | 0.00 | 0.00 | 42 | 1017.6 |